FW2847 Weather Reports


Display with metric or nautical units.
time (UTC)temp
F
wind
direction
speed
MPH
gust
MPH
rain 1hr
in
rain 24hr
in
rain mn
in
humidity
%
barometer
mb
20210415104557 29 83 0.0 0.0 0.00 0.01 0.00 83 1018.2
20210415104051 29 82 0.0 0.0 0.00 0.01 0.00 83 1018.2
20210415103453 29 83 0.0 0.0 0.00 0.01 0.00 83 1018.3
20210415102248 29 83 0.0 0.0 0.00 0.01 0.00 83 1018.6
20210415101549 29 83 0.0 0.0 0.00 0.01 0.00 83 1018.4
20210415101045 29 82 0.0 0.0 0.00 0.01 0.00 83 1018.6
20210415100555 29 82 0.0 0.0 0.00 0.01 0.00 83 1018.6
20210415095954 29 83 0.0 0.0 0.00 0.01 0.00 83 1018.8
20210415094736 29 83 0.0 0.0 0.00 0.01 0.00 83 1018.7
20210415094103 29 83 0.0 0.0 0.00 0.01 0.00 83 1018.9
20210415093549 29 82 0.0 0.0 0.00 0.01 0.00 83 1019.2
20210415093218 29 82 0.0 0.0 0.00 0.01 0.00 83 1019.2
20210415092725 29 82 0.0 0.0 0.00 0.01 0.00 83 1019.2
20210415091545 29 82 0.0 0.0 0.00 0.01 0.00 83 1019.2
20210415091042 29 82 0.0 0.0 0.00 0.01 0.00 83 1019.3
20210415090550 29 82 0.0 0.0 0.00 0.01 0.00 83 1019.3
20210415090046 29 82 0.0 0.0 0.00 0.01 0.00 82 1019.2
20210415085838 29 82 0.0 0.0 0.00 0.01 0.00 82 1019.3
20210415084536 29 82 0.0 0.0 0.00 0.01 0.00 82 1019.3
20210415084041 29 82 0.0 0.0 0.00 0.01 0.00 82 1019.5
20210415083646 29 353 0.0 1.0 0.00 0.01 0.00 82 1019.9
20210415083330 29 350 0.0 1.0 0.00 0.01 0.00 82 1019.9
20210415083028 29 315 0.0 0.0 0.00 0.01 0.00 82 1020.0
20210415082713 29 315 0.0 1.0 0.00 0.01 0.00 82 1020.0
20210415081523 29 314 0.0 1.0 0.00 0.01 0.00 82 1020.1
20210415081029 29 316 0.0 1.0 0.00 0.01 0.00 81 1020.1
20210415080548 29 338 0.0 2.0 0.00 0.01 0.00 81 1020.2
20210415080035 29 325 0.0 2.0 0.00 0.01 0.00 82 1020.6
20210415074601 29 20 0.0 2.0 0.00 0.01 0.00 82 1020.6
20210415074041 29 43 1.0 3.0 0.00 0.01 0.00 82 1020.8
20210415073520 29 309 1.0 3.0 0.00 0.01 0.00 82 1021.0
20210415073046 29 336 1.0 4.0 0.00 0.01 0.00 82 1021.0
20210415072859 29 311 2.0 6.0 0.00 0.01 0.00 82 1020.8
20210415071950 29 319 3.0 6.0 0.00 0.01 0.00 82 1021.0
20210415071330 29 339 2.0 8.0 0.00 0.01 0.00 83 1021.2
20210415070740 29 333 3.0 8.0 0.00 0.01 0.00 83 1021.2
20210415070156 29 304 3.0 7.0 0.00 0.01 0.00 82 1021.2
20210415065851 29 304 3.0 7.0 0.00 0.01 0.00 82 1021.3
20210415065316 29 293 3.0 7.0 0.00 0.01 0.00 82 1021.3
20210415064528 29 319 3.0 8.0 0.00 0.01 0.00 82 1021.6
20210415064025 29 342 3.0 8.0 0.00 0.01 0.00 83 1021.3
20210415063519 29 345 3.0 8.0 0.00 0.01 0.00 82 1021.6
20210415063119 29 330 3.0 8.0 0.00 0.01 0.00 83 1021.6
20210415062933 29 289 4.0 7.0 0.00 0.01 0.00 83 1021.8
20210415062344 29 290 4.0 8.0 0.00 0.01 0.00 83 1021.7
20210415061528 29 325 4.0 8.0 0.00 0.01 0.00 83 1021.7
20210415061031 29 328 4.0 8.0 0.00 0.01 0.00 83 1021.7
20210415060519 29 30 5.0 9.0 0.00 0.01 0.00 83 1021.8
20210415060023 29 341 5.0 9.0 0.00 0.01 0.00 83 1021.6
20210415055822 29 321 5.0 9.0 0.00 0.01 0.01 83 1021.6
20210415055123 29 335 4.0 9.0 0.00 0.01 0.01 84 1021.7
20210415054523 29 331 4.0 9.0 0.00 0.01 0.01 84 1021.7
20210415054027 29 283 5.0 11.0 0.00 0.01 0.01 85 1021.7
20210415053522 29 338 5.0 11.0 0.00 0.01 0.01 85 1021.8
20210415053106 29 297 4.0 10.0 0.00 0.01 0.01 85 1021.3
20210415052839 29 318 4.0 8.0 0.00 0.01 0.01 85 1021.8
20210415052355 29 296 4.0 8.0 0.00 0.01 0.01 85 1022.0
20210415051519 29 333 4.0 8.0 0.00 0.01 0.01 85 1021.7
20210415051020 29 4 4.0 9.0 0.00 0.01 0.01 85 1021.7
20210415050522 29 8 4.0 9.0 0.00 0.01 0.01 85 1021.7
20210415050036 29 319 4.0 10.0 0.00 0.01 0.01 85 1021.8
20210415045828 29 312 5.0 11.0 0.00 0.01 0.01 85 1022.0
20210415045154 29 331 5.0 12.0 0.00 0.01 0.01 85 1021.9
20210415044543 30 298 5.0 12.0 0.00 0.01 0.01 85 1022.2
20210415044026 30 17 5.0 12.0 0.00 0.01 0.01 85 1021.9
20210415043518 30 20 5.0 12.0 0.00 0.01 0.01 85 1022.0
20210415043026 30 333 6.0 13.0 0.00 0.01 0.01 87 1021.9
20210415042938 31 331 7.0 13.0 0.00 0.01 0.01 88 1021.9
20210415042629 31 316 7.0 11.0 0.00 0.01 0.01 89 1021.9
20210415041529 31 283 6.0 12.0 0.00 0.01 0.01 89 1022.0
20210415041033 31 290 6.0 12.0 0.00 0.01 0.01 89 1022.0
20210415040519 31 32 6.0 11.0 0.00 0.01 0.01 88 1021.9
20210415040035 31 3 5.0 11.0 0.00 0.01 0.01 87 1022.2
20210415035841 32 350 5.0 11.0 0.00 0.01 0.01 87 1022.3
20210415035257 33 6 4.0 10.0 0.00 0.01 0.01 86 1022.3
20210415034519 33 330 2.0 6.0 0.00 0.01 0.01 86 1022.2
20210415034027 33 334 4.0 7.0 0.00 0.01 0.01 85 1022.0
20210415033515 34 318 4.0 7.0 0.00 0.01 0.01 84 1022.2
20210415033037 34 302 3.0 7.0 0.00 0.01 0.01 83 1022.2
20210415032753 34 316 4.0 8.0 0.00 0.01 0.01 81 1022.3
20210415032220 35 338 4.0 8.0 0.00 0.01 0.01 80 1022.3
20210415031513 35 323 3.0 8.0 0.00 0.01 0.01 79 1022.2
20210415031020 35 319 3.0 8.0 0.00 0.01 0.01 79 1022.0
20210415030511 35 297 4.0 8.0 0.00 0.01 0.01 78 1021.9
20210415030047 35 297 4.0 8.0 0.00 0.01 0.01 78 1021.9
20210415025908 36 294 4.0 8.0 0.00 0.01 0.01 78 1021.7
20210415025559 36 328 5.0 9.0 0.00 0.01 0.01 76 1021.8
20210415024532 36 285 4.0 9.0 0.00 0.01 0.01 75 1021.6
20210415024032 36 324 4.0 10.0 0.00 0.01 0.01 73 1021.7
20210415023532 37 342 3.0 10.0 0.00 0.01 0.01 72 1021.3
20210415023024 37 18 2.0 4.0 0.00 0.01 0.01 71 1021.4
20210415022729 37 326 2.0 4.0 0.00 0.01 0.01 70 1021.2
20210415022134 37 328 2.0 5.0 0.00 0.01 0.01 70 1021.1
20210415021541 37 349 2.0 6.0 0.00 0.01 0.01 69 1021.0
20210415021026 37 314 2.0 6.0 0.00 0.01 0.01 69 1020.8
20210415020527 37 254 2.0 5.0 0.00 0.01 0.01 70 1020.5
20210415020359 37 359 3.0 5.0 0.00 0.01 0.01 71 1020.6
20210415020202 37 327 4.0 6.0 0.00 0.01 0.01 71 1020.7
20210415015822 36 285 3.0 6.0 0.00 0.01 0.01 71 1020.6
20210415014532 36 318 2.0 5.0 0.00 0.01 0.01 71 1020.5
20210415014042 36 315 2.0 5.0 0.00 0.01 0.01 72 1020.5
20210415013527 36 295 3.0 5.0 0.00 0.01 0.01 72 1020.4
20210415013354 36 300 3.0 5.0 0.00 0.01 0.01 71 1020.0
20210415013059 36 292 3.0 5.0 0.00 0.01 0.01 72 1020.0
20210415011523 36 281 3.0 5.0 0.00 0.01 0.01 72 1019.8
20210415011029 36 288 4.0 7.0 0.00 0.01 0.01 73 1019.8
20210415010536 36 311 4.0 7.0 0.00 0.01 0.01 72 1019.8
20210415010033 36 295 3.0 6.0 0.00 0.01 0.01 72 1019.9
20210415005537 36 297 1.0 5.0 0.00 0.01 0.01 71 1019.9
20210415004522 36 337 2.0 5.0 0.00 0.01 0.01 71 1019.8
20210415004025 36 321 2.0 4.0 0.00 0.01 0.01 71 1019.8
20210415003514 36 300 2.0 4.0 0.00 0.01 0.01 71 1019.9
20210415002955 36 262 1.0 4.0 0.00 0.01 0.01 71 1019.6
20210415001708 35 325 1.0 3.0 0.00 0.01 0.01 70 1019.5
20210415001159 35 333 2.0 5.0 0.00 0.01 0.01 70 1019.9
20210415000904 35 354 3.0 5.0 0.00 0.01 0.01 70 1019.8
20210415000544 35 329 4.0 7.0 0.00 0.01 0.01 70 1019.6
20210415000100 35 308 4.0 7.0 0.00 0.01 0.01 69 1019.6
20210414235652 36 322 3.0 6.0 0.00 0.01 0.01 69 1019.4
20210414234520 36 297 3.0 6.0 0.00 0.01 0.01 69 1019.3
20210414234113 36 301 3.0 7.0 0.00 0.01 0.01 69 1019.5
20210414233457 36 337 3.0 7.0 0.00 0.01 0.01 69 1019.6
20210414233130 36 49 3.0 7.0 0.00 0.01 0.01 68 1019.3
20210414232832 36 328 2.0 6.0 0.00 0.01 0.01 68 1019.5
20210414232151 36 5 2.0 5.0 0.00 0.01 0.01 67 1019.4
20210414231507 36 336 2.0 7.0 0.00 0.01 0.01 68 1019.4
20210414230955 36 323 3.0 7.0 0.01 0.01 0.01 67 1019.6
20210414230458 36 299 2.0 5.0 0.01 0.01 0.01 67 1019.5
20210414230102 36 307 2.0 5.0 0.01 0.01 0.01 68 1019.4
20210414225858 36 329 2.0 4.0 0.01 0.01 0.01 67 1019.5
20210414225833 36 297 2.0 4.0 0.01 0.01 0.01 66 1019.6
20210414224455 36 276 3.0 5.0 0.01 0.01 0.01 68 1019.8
20210414224225 36 314 3.0 7.0 0.01 0.01 0.01 68 1019.9
20210414223449 36 302 3.0 7.0 0.01 0.01 0.01 68 1019.8
20210414222951 35 292 3.0 6.0 0.01 0.01 0.01 68 1019.9
20210414222831 35 266 2.0 6.0 0.01 0.01 0.01 68 1020.1
20210414222121 36 301 2.0 5.0 0.01 0.01 0.01 67 1020.2
20210414221518 36 304 3.0 10.0 0.01 0.01 0.01 68 1020.0
20210414220949 36 270 2.0 10.0 0.00 0.00 0.00 68 1020.0
20210414220454 36 338 1.0 4.0 0.00 0.00 0.00 68 1020.0
20210414215955 36 316 1.0 4.0 0.00 0.00 0.00 70 1020.2
20210414215758 36 354 1.0 3.0 0.00 0.00 0.00 69 1020.4
20210414214950 35 288 2.0 7.0 0.00 0.00 0.00 69 1020.5
20210414214447 35 297 2.0 7.0 0.00 0.00 0.00 69 1020.5
20210414213948 35 345 1.0 6.0 0.00 0.00 0.00 70 1020.6
20210414213452 35 293 2.0 8.0 0.00 0.00 0.00 70 1020.5
20210414213053 35 23 3.0 8.0 0.00 0.00 0.00 71 1020.6
20210414212939 34 246 3.0 7.0 0.00 0.00 0.00 71 1020.7
20210414212457 34 300 3.0 8.0 0.00 0.00 0.00 73 1020.8
20210414211448 34 30 3.0 8.0 0.00 0.00 0.00 73 1021.0
20210414211218 34 293 2.0 6.0 0.00 0.00 0.00 72 1021.0
20210414210459 34 351 2.0 5.0 0.00 0.00 0.00 76 1020.8
20210414205947 33 323 2.0 5.0 0.00 0.00 0.00 77 1021.1
20210414205744 33 316 2.0 6.0 0.00 0.00 0.00 77 1021.1
20210414205055 33 295 2.0 6.0 0.00 0.00 0.00 76 1021.1
20210414204445 32 301 1.0 5.0 0.00 0.00 0.00 75 1021.2
20210414203947 33 331 2.0 4.0 0.00 0.00 0.00 77 1021.4
20210414203451 32 314 2.0 6.0 0.00 0.00 0.00 79 1021.4
20210414203049 31 291 3.0 6.0 0.00 0.00 0.00 78 1021.6
20210414202925 31 307 2.0 5.0 0.00 0.00 0.00 78 1021.6
20210414202333 31 316 1.0 5.0 0.00 0.00 0.00 79 1021.7
20210414201447 31 331 1.0 3.0 0.00 0.00 0.00 78 1021.8
20210414200957 31 300 2.0 5.0 0.00 0.00 0.00 80 1021.7
20210414200453 31 341 2.0 5.0 0.00 0.00 0.00 78 1021.8
20210414195943 32 317 1.0 3.0 0.00 0.00 0.00 82 1021.8
20210414195841 31 305 1.0 4.0 0.00 0.00 0.00 80 1021.8
20210414194959 31 302 2.0 4.0 0.00 0.00 0.00 80 1021.9
20210414194447 30 321 2.0 4.0 0.00 0.00 0.00 82 1021.9
20210414193944 30 308 1.0 4.0 0.00 0.00 0.00 80 1021.9
20210414193443 30 314 1.0 4.0 0.00 0.00 0.00 81 1022.0
20210414193038 30 300 1.0 4.0 0.00 0.00 0.00 81 1022.0
20210414192801 30 342 1.0 3.0 0.00 0.00 0.00 80 1022.0
20210414192050 30 46 1.0 6.0 0.00 0.00 0.00 82 1022.0
20210414191444 30 336 2.0 6.0 0.00 0.00 0.00 82 1022.0
20210414190946 30 65 2.0 5.0 0.00 0.00 0.00 82 1022.0
20210414190450 29 37 1.0 4.0 0.00 0.00 0.00 83 1022.2
20210414190037 29 49 1.0 4.0 0.00 0.00 0.00 83 1022.3
20210414185833 29 354 2.0 5.0 0.00 0.00 0.00 83 1022.4
20210414185236 29 37 2.0 5.0 0.00 0.00 0.00 82 1022.4
20210414184457 29 345 2.0 5.0 0.00 0.00 0.00 83 1022.4
20210414183938 29 3 2.0 5.0 0.00 0.01 0.00 82 1022.5
20210414183437 29 52 2.0 5.0 0.00 0.01 0.00 84 1022.5
20210414183104 29 34 1.0 5.0 0.00 0.01 0.00 83 1022.6
20210414182913 28 329 1.0 4.0 0.00 0.01 0.00 83 1022.6
20210414182203 28 47 1.0 4.0 0.00 0.01 0.00 82 1022.6
20210414181443 28 343 1.0 4.0 0.00 0.01 0.00 84 1022.6
20210414180938 28 319 1.0 4.0 0.00 0.02 0.00 82 1022.6
20210414180437 28 343 1.0 5.0 0.00 0.02 0.00 82 1022.9
20210414180144 28 316 2.0 5.0 0.00 0.02 0.00 82 1022.9
20210414175906 28 334 2.0 4.0 0.00 0.02 0.00 83 1023.0
20210414175241 28 27 2.0 4.0 0.00 0.02 0.00 84 1023.0
20210414174439 28 18 2.0 6.0 0.00 0.03 0.00 83 1023.1
20210414173938 27 312 2.0 6.0 0.00 0.03 0.00 84 1023.0
20210414173440 27 352 3.0 7.0 0.00 0.03 0.00 83 1023.1
20210414172949 27 3 4.0 7.0 0.00 0.03 0.00 85 1023.1
20210414172820 26 307 3.0 7.0 0.00 0.03 0.00 84 1023.2
20210414172231 26 343 3.0 7.0 0.00 0.04 0.00 84 1023.4
20210414171440 26 35 4.0 9.0 0.00 0.04 0.00 84 1023.4
20210414170941 26 326 4.0 9.0 0.00 0.04 0.00 84 1023.5
20210414170642 26 302 3.0 6.0 0.00 0.04 0.00 83 1023.5
20210414170251 26 25 3.0 7.0 0.00 0.04 0.00 83 1023.5
20210414165946 26 348 3.0 7.0 0.00 0.04 0.00 83 1023.5
20210414165328 25 307 3.0 8.0 0.00 0.04 0.00 83 1023.5
20210414164441 25 328 3.0 8.0 0.00 0.04 0.00 83 1023.5
20210414163946 25 310 3.0 7.0 0.00 0.04 0.00 83 1023.5
20210414163438 25 345 3.0 7.0 0.00 0.04 0.00 83 1023.4
20210414163121 25 315 3.0 7.0 0.00 0.04 0.00 83 1023.5
20210414162940 25 321 3.0 7.0 0.00 0.04 0.00 83 1023.5
20210414162311 25 350 3.0 7.0 0.00 0.04 0.00 83 1023.5
20210414161453 25 334 3.0 8.0 0.00 0.04 0.00 84 1023.5
20210414160937 25 58 3.0 10.0 0.00 0.04 0.00 83 1023.5
20210414160437 25 271 3.0 10.0 0.00 0.04 0.00 84 1023.6
20210414160111 25 53 3.0 7.0 0.00 0.04 0.00 84 1023.5
20210414155839 24 292 4.0 7.0 0.00 0.04 0.00 84 1023.5
20210414155242 24 14 4.0 7.0 0.00 0.04 0.00 84 1023.4
20210414154434 24 250 4.0 7.0 0.00 0.04 0.00 84 1023.5
20210414153934 24 284 3.0 7.0 0.00 0.04 0.00 84 1023.5
20210414153708 25 311 3.0 6.0 0.00 0.04 0.00 85 1023.5
20210414153115 24 311 4.0 9.0 0.00 0.04 0.00 85 1023.4
20210414152856 24 282 3.0 9.0 0.00 0.04 0.00 85 1023.4
20210414152101 24 323 3.0 7.0 0.00 0.04 0.00 85 1023.4
20210414152027 24 345 4.0 10.0 0.00 0.04 0.00 85 1023.4